Total_Precipitation_Accumulation
0.09 0.13 0.29 0.27 0.23 0.20 0.19 0.18 0.19 0.20 0.21 0.23 0.23 0.26 0.25 0.23 0.21 0.21 0.20 0.23 0.31 0.40 0.47 0.51 0.48 0.42 0.35 0.28 0.17 0.08 0.06 0.06 0.06 0.06 0.07 0.10 0.13 0.12 0.10 0.10 0.10 0.12 0.15
0.08 0.13 0.28 0.29 0.27 0.25 0.25 0.21 0.18 0.18 0.20 0.24 0.28 0.28 0.28 0.25 0.24 0.19 0.21 0.27 0.33 0.36 0.39 0.43 0.36 0.27 0.23 0.17 0.08 0.04 0.04 0.03 0.02 0.02 0.02 0.04 0.07 0.10 0.10 0.08 0.09 0.12 0.14
0.09 0.16 0.26 0.29 0.30 0.30 0.27 0.21 0.16 0.16 0.21 0.27 0.31 0.30 0.30 0.28 0.22 0.22 0.26 0.29 0.31 0.34 0.32 0.29 0.20 0.14 0.09 0.06 0.04 0.04 0.04 0.03 0.01 0.02 0.03 0.05 0.06 0.10 0.10 0.08 0.10 0.13 0.15
0.12 0.20 0.25 0.31 0.33 0.32 0.28 0.24 0.21 0.19 0.23 0.30 0.32 0.32 0.33 0.30 0.22 0.25 0.29 0.28 0.30 0.29 0.22 0.17 0.14 0.12 0.07 0.04 0.03 0.03 0.03 0.02 0.02 0.03 0.07 0.07 0.07 0.14 0.15 0.13 0.14 0.14 0.14
0.18 0.23 0.30 0.35 0.37 0.37 0.32 0.28 0.25 0.25 0.29 0.34 0.36 0.37 0.35 0.34 0.30 0.30 0.28 0.25 0.23 0.21 0.16 0.13 0.10 0.08 0.06 0.05 0.04 0.03 0.03 0.02 0.02 0.04 0.06 0.07 0.09 0.18 0.19 0.16 0.14 0.14 0.14
0.25 0.33 0.41 0.44 0.46 0.43 0.39 0.34 0.32 0.31 0.34 0.37 0.40 0.41 0.40 0.41 0.40 0.37 0.29 0.21 0.16 0.14 0.12 0.11 0.07 0.06 0.06 0.06 0.04 0.03 0.03 0.02 0.02 0.03 0.04 0.05 0.09 0.20 0.21 0.15 0.15 0.17 0.19
0.31 0.41 0.51 0.58 0.60 0.53 0.45 0.42 0.40 0.42 0.45 0.44 0.41 0.45 0.50 0.47 0.45 0.41 0.29 0.18 0.13 0.10 0.09 0.09 0.08 0.06 0.07 0.06 0.06 0.04 0.03 0.02 0.02 0.02 0.03 0.05 0.11 0.22 0.22 0.17 0.18 0.19 0.19
0.38 0.44 0.55 0.63 0.64 0.60 0.56 0.50 0.48 0.49 0.50 0.52 0.49 0.54 0.61 0.56 0.44 0.39 0.29 0.18 0.13 0.10 0.10 0.10 0.10 0.09 0.09 0.09 0.08 0.06 0.04 0.02 0.02 0.03 0.04 0.06 0.11 0.19 0.18 0.15 0.15 0.15 0.16
0.55 0.59 0.66 0.66 0.63 0.59 0.53 0.48 0.48 0.52 0.51 0.50 0.50 0.54 0.56 0.56 0.45 0.37 0.26 0.20 0.16 0.13 0.12 0.11 0.11 0.10 0.10 0.10 0.09 0.07 0.04 0.03 0.02 0.02 0.03 0.05 0.09 0.14 0.13 0.12 0.11 0.11 0.13
0.83 0.78 0.76 0.77 0.72 0.63 0.56 0.51 0.50 0.50 0.47 0.45 0.44 0.37 0.36 0.36 0.34 0.33 0.22 0.19 0.18 0.17 0.14 0.12 0.11 0.11 0.09 0.06 0.06 0.05 0.04 0.03 0.02 0.02 0.03 0.03 0.05 0.08 0.09 0.10 0.10 0.10 0.12
1.12 1.00 0.90 0.88 0.85 0.79 0.72 0.61 0.56 0.54 0.49 0.44 0.41 0.32 0.31 0.37 0.35 0.28 0.15 0.13 0.15 0.16 0.14 0.12 0.11 0.10 0.07 0.04 0.03 0.03 0.03 0.02 0.02 0.02 0.02 0.02 0.04 0.07 0.10 0.12 0.12 0.11 0.12
1.26 1.11 1.03 0.97 0.92 0.90 0.79 0.69 0.64 0.58 0.51 0.45 0.40 0.38 0.35 0.37 0.37 0.28 0.21 0.14 0.14 0.14 0.13 0.13 0.13 0.11 0.08 0.05 0.04 0.03 0.03 0.02 0.03 0.03 0.02 0.02 0.04 0.07 0.11 0.13 0.12 0.11 0.11
1.42 1.33 1.18 1.07 0.99 0.93 0.91 0.77 0.69 0.60 0.56 0.51 0.45 0.43 0.40 0.43 0.41 0.35 0.32 0.23 0.20 0.14 0.14 0.14 0.14 0.10 0.09 0.09 0.08 0.05 0.03 0.04 0.04 0.03 0.02 0.02 0.03 0.07 0.11 0.13 0.13 0.12 0.13
1.41 1.44 1.27 1.16 1.04 0.96 0.90 0.84 0.75 0.67 0.60 0.53 0.47 0.41 0.43 0.46 0.42 0.35 0.31 0.27 0.25 0.20 0.17 0.17 0.15 0.12 0.10 0.09 0.08 0.06 0.05 0.06 0.05 0.04 0.04 0.03 0.04 0.06 0.11 0.14 0.15 0.16 0.17
1.37 1.42 1.40 1.25 1.14 0.97 0.91 0.91 0.82 0.68 0.58 0.56 0.56 0.50 0.43 0.40 0.37 0.36 0.31 0.31 0.29 0.26 0.24 0.21 0.17 0.14 0.13 0.11 0.08 0.06 0.05 0.05 0.05 0.05 0.04 0.03 0.03 0.04 0.07 0.12 0.18 0.23 0.26
1.28 1.33 1.37 1.37 1.30 1.12 0.91 0.87 0.88 0.75 0.63 0.60 0.58 0.52 0.50 0.44 0.37 0.34 0.32 0.31 0.29 0.25 0.22 0.23 0.21 0.18 0.16 0.14 0.10 0.07 0.05 0.05 0.05 0.04 0.04 0.04 0.04 0.03 0.04 0.08 0.16 0.25 0.33
1.28 1.26 1.33 1.35 1.42 1.29 1.07 0.93 0.91 0.84 0.73 0.65 0.59 0.62 0.60 0.55 0.45 0.39 0.35 0.32 0.29 0.31 0.28 0.26 0.26 0.22 0.18 0.15 0.12 0.10 0.08 0.07 0.06 0.06 0.06 0.05 0.05 0.04 0.04 0.07 0.15 0.23 0.32
1.44 1.30 1.34 1.36 1.45 1.44 1.26 1.08 0.96 0.91 0.83 0.72 0.63 0.65 0.70 0.68 0.62 0.56 0.51 0.44 0.41 0.42 0.41 0.34 0.30 0.30 0.22 0.18 0.15 0.13 0.11 0.09 0.07 0.06 0.07 0.06 0.05 0.05 0.06 0.06 0.10 0.16 0.25
1.50 1.42 1.38 1.34 1.40 1.48 1.47 1.34 1.17 1.05 0.91 0.82 0.69 0.64 0.69 0.69 0.68 0.64 0.59 0.61 0.62 0.55 0.48 0.44 0.36 0.35 0.32 0.25 0.22 0.19 0.16 0.13 0.11 0.09 0.08 0.07 0.07 0.06 0.07 0.07 0.08 0.09 0.14
1.61 1.50 1.46 1.42 1.44 1.58 1.67 1.64 1.45 1.27 1.10 0.96 0.84 0.74 0.73 0.73 0.73 0.73 0.69 0.70 0.72 0.69 0.62 0.55 0.48 0.42 0.39 0.37 0.33 0.25 0.20 0.17 0.14 0.12 0.10 0.10 0.09 0.08 0.08 0.08 0.09 0.09 0.10
1.63 1.59 1.45 1.48 1.48 1.59 1.70 1.69 1.56 1.35 1.29 1.17 1.04 0.96 0.88 0.83 0.82 0.84 0.81 0.83 0.83 0.81 0.77 0.77 0.75 0.64 0.53 0.52 0.48 0.34 0.23 0.17 0.14 0.12 0.12 0.12 0.12 0.13 0.12 0.12 0.12 0.13 0.14
1.45 1.61 1.51 1.51 1.56 1.51 1.55 1.74 1.85 1.75 1.58 1.45 1.29 1.15 1.04 0.94 0.90 0.88 0.88 0.89 0.88 0.88 0.87 0.84 0.81 0.75 0.69 0.67 0.60 0.54 0.39 0.25 0.17 0.15 0.14 0.13 0.13 0.15 0.16 0.16 0.17 0.17 0.18
1.36 1.57 1.58 1.57 1.63 1.57 1.64 1.98 2.19 2.18 1.90 1.67 1.49 1.31 1.19 1.13 1.08 0.99 0.90 0.88 0.86 0.88 0.87 0.89 0.91 0.92 0.88 0.84 0.77 0.78 0.62 0.42 0.30 0.22 0.19 0.17 0.18 0.18 0.20 0.22 0.23 0.24 0.24
1.30 1.48 1.54 1.65 1.72 1.73 1.77 1.92 1.98 1.90 1.72 1.53 1.52 1.48 1.39 1.31 1.22 1.16 1.09 1.01 0.95 0.91 0.87 0.92 0.97 1.01 1.05 1.00 0.93 0.87 0.79 0.64 0.58 0.42 0.29 0.27 0.29 0.28 0.27 0.26 0.26 0.28 0.28
1.20 1.40 1.44 1.52 1.60 1.68 1.67 1.77 1.95 1.84 1.67 1.58 1.56 1.51 1.43 1.41 1.34 1.26 1.20 1.18 1.13 1.08 1.04 1.05 1.06 1.07 1.08 1.07 1.04 0.99 0.96 0.84 0.72 0.67 0.50 0.39 0.39 0.36 0.35 0.34 0.32 0.32 0.32
1.01 1.27 1.37 1.47 1.55 1.63 1.61 1.64 1.82 1.75 1.58 1.43 1.38 1.40 1.33 1.30 1.24 1.19 1.16 1.15 1.13 1.09 1.07 1.05 1.07 1.07 1.06 1.04 1.01 0.97 0.98 0.93 0.82 0.81 0.74 0.56 0.52 0.48 0.48 0.48 0.46 0.43 0.41